K8GLX Weather Reports


Display with metric or nautical units.
time (UTC)temp
F
wind
direction
speed
MPH
gust
MPH
rain 1hr
in
rain 24hr
in
rain mn
in
humidity
%
barometer
mb
20260503224423 61 230 4.0 12.0 0.00 0.00 0.00 38 1011.3
20260503223709 61 241 6.0 14.0 0.00 0.00 0.00 38 1011.6
20260503222708 61 266 3.0 15.0 0.00 0.00 0.00 38 1011.7
20260503221709 61 254 10.0 14.0 0.00 0.00 0.00 38 1011.5
20260503220709 61 245 4.0 16.0 0.00 0.00 0.00 37 1011.7
20260503220435 61 260 8.0 21.0 0.00 0.00 0.00 37 1011.7
20260503215709 60 259 4.0 21.0 0.00 0.00 0.00 38 1011.9
20260503215422 61 263 9.0 20.0 0.00 0.00 0.00 38 1011.7
20260503214709 60 252 8.0 20.0 0.00 0.00 0.00 37 1011.9
20260503213708 61 258 13.0 19.0 0.00 0.00 0.00 37 1011.5
20260503213420 61 273 10.0 20.0 0.00 0.00 0.00 37 1011.6
20260503212708 61 263 11.0 20.0 0.00 0.00 0.00 37 1011.6
20260503212422 62 261 7.0 17.0 0.00 0.00 0.00 37 1011.5
20260503211708 62 258 16.0 17.0 0.00 0.00 0.00 36 1011.7
20260503210708 62 241 7.0 20.0 0.00 0.00 0.00 36 1011.7
20260503210422 62 265 7.0 22.0 0.00 0.00 0.00 35 1011.5
20260503205708 62 242 12.0 22.0 0.00 0.00 0.00 35 1011.4
20260503204709 62 260 7.0 15.0 0.00 0.00 0.00 36 1011.5
20260503204422 62 253 10.0 17.0 0.00 0.00 0.00 35 1011.6
20260503203712 62 204 12.0 17.0 0.00 0.00 0.00 35 1011.6
20260503202708 62 278 9.0 16.0 0.00 0.00 0.00 36 1011.5
20260503201709 62 254 10.0 19.0 0.00 0.00 0.00 36 1011.8
20260503200709 61 271 7.0 16.0 0.00 0.00 0.00 36 1012.2
20260503195708 61 275 15.0 16.0 0.00 0.00 0.00 37 1012.1
20260503194708 62 273 9.0 18.0 0.00 0.00 0.00 38 1012.4
20260503194422 60 261 9.0 18.0 0.00 0.00 0.00 40 1012.3
20260503193708 60 238 6.0 18.0 0.00 0.00 0.00 40 1012.5
20260503192713 60 235 9.0 17.0 0.00 0.00 0.00 40 1012.8
20260503192608 60 242 6.0 14.0 0.00 0.00 0.00 41 1012.9
20260503191907 61 261 7.0 15.0 0.00 0.00 0.00 42 1012.8
20260503191421 60 257 8.0 15.0 0.00 0.00 0.00 41 1013.0
20260503190709 60 284 9.0 17.0 0.00 0.00 0.00 40 1013.2
20260503190421 59 264 14.0 17.0 0.00 0.00 0.00 42 1013.1
20260503185709 60 281 13.0 19.0 0.00 0.00 0.00 41 1013.1
20260503185421 60 274 12.0 19.0 0.00 0.00 0.00 40 1013.2
20260503184859 60 255 7.0 15.0 0.00 0.00 0.00 40 1013.3
20260503184421 60 236 10.0 14.0 0.00 0.00 0.00 41 1013.3
20260503183708 61 271 11.0 19.0 0.00 0.00 0.00 39 1013.3
20260503182709 60 272 7.0 18.0 0.00 0.00 0.00 40 1013.3
20260503181709 59 274 11.0 19.0 0.00 0.00 0.00 40 1013.5
20260503180709 60 247 6.0 18.0 0.00 0.00 0.00 39 1013.5
20260503175709 59 255 10.0 20.0 0.00 0.00 0.00 38 1013.8
20260503174708 59 255 4.0 17.0 0.00 0.00 0.00 38 1013.6
20260503173708 59 272 11.0 17.0 0.00 0.00 0.00 38 1013.8
20260503172709 58 248 15.0 17.0 0.00 0.00 0.00 39 1014.0
20260503171709 58 256 9.0 19.0 0.00 0.00 0.00 41 1014.1
20260503171421 58 273 9.0 19.0 0.00 0.00 0.00 39 1014.0
20260503170709 58 266 7.0 16.0 0.00 0.00 0.00 39 1014.2
20260503150709 54 241 4.0 16.0 0.00 0.00 0.00 41 1015.4
20260503130709 47 235 4.0 11.0 0.00 0.00 0.00 44 1016.1
20260503110708 40 237 3.0 7.0 0.00 0.01 0.00 69 1015.5
20260503110422 40 167 3.0 7.0 0.00 0.01 0.00 70 1015.6
20260503081421 39 139 2.0 6.0 0.00 0.02 0.00 75 1015.6
20260503080708 39 216 3.0 6.0 0.00 0.02 0.00 75 1015.6
20260503080421 39 138 1.0 6.0 0.00 0.02 0.00 75 1015.6
20260503072708 39 213 3.0 5.0 0.00 0.03 0.00 76 1015.4
20260503071709 39 140 1.0 6.0 0.00 0.04 0.00 76 1015.7
20260503070708 39 164 1.0 5.0 0.00 0.04 0.00 76 1015.7
20260503054708 39 184 3.0 4.0 0.00 0.05 0.00 74 1016.0
20260503053708 39 195 2.0 4.0 0.00 0.06 0.00 73 1016.0
20260503053422 39 209 2.0 3.0 0.00 0.06 0.00 73 1016.2
20260503052709 39 174 3.0 3.0 0.00 0.07 0.00 73 1016.1
20260503051711 39 0 1.0 3.0 0.00 0.07 0.00 73 1016.2
20260503050709 39 359 0.0 3.0 0.00 0.07 0.00 71 1016.1
20260503050422 39 217 0.0 3.0 0.00 0.07 0.00 71 1016.3
20260503045708 40 310 2.0 3.0 0.00 0.07 0.00 71 1016.3
20260503044709 40 126 0.0 3.0 0.00 0.07 0.00 71 1016.3
20260503043709 40 86 0.0 6.0 0.00 0.07 0.00 71 1016.2
20260503042709 40 236 4.0 6.0 0.00 0.07 0.00 70 1016.4
20260503041709 41 227 3.0 6.0 0.00 0.08 0.00 70 1016.5
20260503040708 41 215 4.0 6.0 0.00 0.08 0.00 70 1016.1
20260503035709 41 221 4.0 6.0 0.00 0.09 0.08 70 1016.6
20260503034709 41 225 5.0 7.0 0.00 0.09 0.08 70 1016.4
20260503033709 42 258 3.0 7.0 0.00 0.09 0.08 69 1016.5
20260503033422 42 233 4.0 7.0 0.00 0.09 0.08 68 1016.5
20260503032709 42 216 6.0 6.0 0.00 0.09 0.08 68 1016.3
20260503031708 42 209 4.0 6.0 0.00 0.09 0.08 67 1016.5
20260503030709 42 216 4.0 6.0 0.00 0.09 0.08 67 1016.4
20260503030422 43 203 4.0 6.0 0.00 0.09 0.08 66 1016.6
20260503025709 43 213 4.0 6.0 0.00 0.09 0.08 66 1016.6
20260503024709 43 191 4.0 6.0 0.00 0.09 0.08 66 1016.7
20260503023709 43 207 4.0 6.0 0.00 0.09 0.08 65 1016.8
20260503022709 43 235 4.0 6.0 0.00 0.09 0.08 66 1017.0
20260503021708 43 238 2.0 6.0 0.00 0.09 0.08 65 1016.7
20260503020708 43 214 4.0 6.0 0.00 0.09 0.08 65 1016.8
20260503015709 43 208 4.0 5.0 0.00 0.09 0.08 64 1016.9
20260503014709 43 252 2.0 5.0 0.00 0.09 0.08 63 1016.9
20260503013709 44 271 2.0 8.0 0.00 0.09 0.08 62 1016.8
20260503012709 44 267 5.0 9.0 0.00 0.09 0.08 63 1017.0
20260503011708 44 274 3.0 7.0 0.00 0.09 0.08 62 1016.6
20260503010709 43 258 3.0 9.0 0.00 0.09 0.08 61 1016.9
20260503005708 44 261 5.0 7.0 0.00 0.09 0.08 61 1016.8
20260503004708 43 262 6.0 8.0 0.00 0.09 0.08 60 1016.9
20260503003709 44 264 4.0 8.0 0.00 0.09 0.08 58 1016.8
20260503003422 43 262 6.0 8.0 0.00 0.09 0.08 58 1016.7
20260503002708 43 273 7.0 8.0 0.00 0.09 0.08 57 1016.8
20260503001709 43 282 4.0 6.0 0.00 0.09 0.08 60 1016.7
20260503001422 43 286 4.0 7.0 0.00 0.09 0.08 59 1016.7
20260503000709 43 282 4.0 8.0 0.00 0.09 0.08 59 1017.0
20260502235708 43 248 4.0 8.0 0.00 0.09 0.08 61 1016.7
20260502235422 43 257 7.0 8.0 0.00 0.09 0.08 61 1016.7
20260502234709 43 262 6.0 8.0 0.00 0.09 0.08 60 1016.6
20260502233709 43 283 5.0 8.0 0.00 0.09 0.08 60 1016.7
20260502233422 43 271 4.0 7.0 0.00 0.09 0.08 61 1016.5
20260502232708 44 248 5.0 7.0 0.00 0.09 0.08 62 1016.8
20260502231709 43 251 3.0 10.0 0.00 0.09 0.08 62 1016.6
20260502230708 43 269 6.0 9.0 0.00 0.09 0.08 61 1016.9
20260502225708 43 266 8.0 9.0 0.00 0.09 0.08 58 1016.9
20260502224911 43 250 4.0 9.0 0.00 0.09 0.08 62 1016.9